EW8320 Weather Reports


Display with metric or nautical units.
time (UTC)temp
F
wind
direction
speed
MPH
gust
MPH
rain 1hr
in
rain 24hr
in
rain mn
in
humidity
%
barometer
mb
20260506154630 51 117 0.0 0.0 0.00 0.00 0.00 63 1020.6
20260506152632 50 109 0.0 0.0 0.00 0.00 0.00 62 1020.6
20260506151730 50 112 0.0 0.0 0.00 0.00 0.00 63 1020.7
20260506150732 49 151 0.0 0.0 0.00 0.00 0.00 65 1020.7
20260506145729 47 180 0.0 0.0 0.00 0.00 0.00 66 1020.7
20260506144730 46 202 0.0 0.0 0.00 0.00 0.00 69 1020.6
20260506143731 44 204 0.0 0.0 0.00 0.00 0.00 71 1020.6
20260506142732 43 180 0.0 0.0 0.00 0.00 0.00 72 1020.5
20260506141829 42 202 0.0 0.0 0.00 0.00 0.00 75 1020.5
20260506140929 41 206 0.0 0.0 0.00 0.00 0.00 76 1020.5
20260506135030 39 220 0.0 0.0 0.00 0.00 0.00 76 1020.5
20260506134031 40 180 0.0 0.0 0.00 0.00 0.00 76 1020.4
20260506133032 39 237 0.0 0.0 0.00 0.00 0.00 77 1020.3
20260506132029 39 265 0.0 0.0 0.00 0.00 0.00 77 1020.0
20260506131030 39 261 0.0 0.0 0.00 0.00 0.00 76 1019.9
20260506130031 38 269 0.0 0.0 0.00 0.00 0.00 77 1019.9
20260506123131 39 260 0.0 0.0 0.00 0.00 0.00 76 1019.8
20260506122132 38 270 0.0 0.0 0.00 0.00 0.00 76 1019.7
20260506121131 39 284 0.0 0.0 0.00 0.00 0.00 75 1019.6
20260506120230 39 265 0.0 0.0 0.00 0.00 0.00 75 1019.6
20260506114248 39 266 0.0 0.0 0.00 0.00 0.00 74 1019.6
20260506112230 39 261 0.0 0.0 0.00 0.00 0.00 75 1019.6
20260506111330 38 239 0.0 0.0 0.00 0.00 0.00 76 1019.5
20260506110429 39 247 0.0 0.0 0.00 0.00 0.00 75 1019.6
20260506105432 40 254 0.0 0.0 0.00 0.00 0.00 73 1019.5
20260506104445 40 240 0.0 0.0 0.00 0.00 0.00 72 1019.4
20260506103529 40 273 0.0 0.0 0.00 0.00 0.00 73 1019.3
20260506102532 40 260 0.0 0.0 0.00 0.00 0.00 73 1019.1
20260506101530 40 262 0.0 0.0 0.00 0.00 0.00 74 1019.2
20260506100530 40 263 0.0 0.0 0.00 0.00 0.00 74 1019.3
20260506095531 40 268 0.0 0.0 0.00 0.00 0.00 72 1019.2
20260506094532 41 273 0.0 0.0 0.00 0.00 0.00 72 1019.3
20260506093630 41 267 0.0 0.0 0.00 0.00 0.00 72 1019.3
20260506092631 41 262 0.0 0.0 0.00 0.00 0.00 71 1019.1
20260506091630 42 266 0.0 0.0 0.00 0.00 0.00 71 1019.1
20260506090630 42 262 0.0 0.0 0.00 0.00 0.00 70 1019.1
20260506085631 43 272 0.0 0.0 0.00 0.00 0.00 70 1019.1
20260506084730 43 263 0.0 0.0 0.00 0.00 0.00 70 1018.9
20260506084631 43 274 0.0 0.0 0.00 0.00 0.00 70 1018.9
20260506083730 43 263 0.0 0.0 0.00 0.00 0.00 70 1018.9
20260506082731 43 275 0.0 0.0 0.00 0.00 0.00 70 1018.8
20260506081730 43 267 0.0 0.0 0.00 0.00 0.00 69 1018.8
20260506072731 45 273 0.0 0.0 0.00 0.00 0.00 68 1018.6
20260506070830 42 263 0.0 0.0 0.00 0.00 0.00 75 1018.4
20260506060821 43 225 0.0 0.0 0.00 0.00 0.00 78 1018.0
20260506051021 44 202 0.0 0.0 0.00 0.00 0.00 76 1018.1
20260506045119 54 180 0.0 0.0 0.00 0.00 0.00 99 1017.9
20260506044118 55 180 0.0 0.0 0.00 0.00 0.00 100 1018.0
20260506043120 46 135 0.0 0.0 0.00 0.00 0.00 71 1018.1
20260506042119 48 135 0.0 0.0 0.00 0.00 0.00 69 1017.9
20260506041120 48 135 0.0 0.0 0.00 0.00 0.00 68 1017.9
20260506040120 49 360 0.0 0.0 0.00 0.00 0.00 68 1017.9
20260506035119 50 360 0.0 0.0 0.00 0.00 0.00 64 1017.6
20260506033317 52 67 0.0 0.0 0.00 0.00 0.00 63 1017.3
20260506032319 53 67 0.0 0.0 0.00 0.00 0.00 60 1017.2
20260506031319 54 292 0.0 0.0 0.00 0.00 0.00 59 1017.1
20260506030319 55 270 0.0 0.0 0.00 0.00 0.00 58 1017.0
20260506030219 55 270 0.0 0.0 0.00 0.00 0.00 57 1017.0
20260506025219 57 337 0.0 0.0 0.00 0.00 0.00 54 1016.8
20260506024219 57 337 0.0 0.0 0.00 0.00 0.00 55 1016.6
20260506022319 61 348 0.0 0.0 0.00 0.00 0.00 43 1016.4
20260506021321 62 45 0.0 0.0 0.00 0.00 0.00 41 1016.3
20260506020320 62 43 0.0 0.0 0.00 0.00 0.00 41 1016.1
20260506020220 62 50 0.0 0.0 0.00 0.00 0.00 41 1016.1
20260506015318 62 48 0.0 0.0 0.00 0.00 0.00 42 1016.1
20260506014322 62 47 0.0 0.0 0.00 0.00 0.00 41 1016.0
20260506013319 62 65 0.0 0.0 0.00 0.00 0.00 40 1016.0
20260506011418 63 47 0.0 0.0 0.00 0.00 0.00 38 1015.9
20260506010419 63 66 0.0 0.0 0.00 0.00 0.00 37 1015.8
20260506004419 63 71 0.0 0.0 0.00 0.00 0.00 36 1015.8
20260506003421 64 73 0.0 0.0 0.00 0.00 0.00 35 1015.6
20260506002518 64 71 0.0 0.0 0.00 0.00 0.00 35 1015.6
20260506001520 63 69 0.0 0.0 0.00 0.00 0.00 36 1015.6
20260505235620 65 67 0.0 0.0 0.00 0.00 0.00 34 1015.5
20260505234719 65 64 0.0 0.0 0.00 0.00 0.00 34 1015.6
20260505233719 64 58 0.0 0.0 0.00 0.00 0.00 34 1015.5
20260505232721 64 63 0.0 0.0 0.00 0.00 0.00 34 1015.7
20260505231721 63 66 0.0 0.0 0.00 0.00 0.00 35 1015.6
20260505230718 63 88 0.0 0.0 0.00 0.00 0.00 34 1015.4
20260505225718 64 62 0.0 0.0 0.00 0.00 0.00 34 1015.5
20260505224818 65 98 0.0 0.0 0.00 0.00 0.00 35 1015.5
20260505223820 65 84 0.0 0.0 0.00 0.00 0.00 34 1015.6
20260505222818 65 54 0.0 0.0 0.00 0.00 0.00 35 1015.6
20260505221818 63 75 0.0 0.0 0.00 0.00 0.00 36 1015.7
20260505220821 63 66 0.0 0.0 0.00 0.00 0.00 35 1015.6
20260505215819 63 88 0.0 0.0 0.00 0.00 0.00 36 1015.6
20260505213917 63 68 0.0 0.0 0.00 0.00 0.00 35 1015.6
20260505213821 63 71 0.0 0.0 0.00 0.00 0.00 34 1015.6
20260505212818 62 135 0.0 0.0 0.00 0.00 0.00 34 1015.6
20260505212722 63 122 0.0 0.0 0.00 0.00 0.00 34 1015.7
20260505211718 63 91 0.0 0.0 0.00 0.00 0.00 34 1015.8
20260505210720 64 57 0.0 0.0 0.00 0.00 0.00 34 1015.7
20260505205719 63 101 0.0 0.0 0.00 0.00 0.00 33 1015.7
20260505203820 65 64 0.0 0.0 0.00 0.00 0.00 34 1016.0
20260505202820 64 112 0.0 0.0 0.00 0.00 0.00 35 1015.9
20260505201820 63 80 0.0 0.0 0.00 0.00 0.00 34 1016.0
20260505195820 63 311 0.0 0.0 0.00 0.00 0.00 34 1016.3
20260505194819 63 97 0.0 0.0 0.00 0.00 0.00 36 1016.4
20260505193836 63 92 0.0 0.0 0.00 0.00 0.00 34 1016.2
20260505192919 63 67 0.0 0.0 0.00 0.00 0.00 35 1016.2
20260505192820 64 84 0.0 0.0 0.00 0.00 0.00 35 1016.3
20260505191919 63 315 0.0 0.0 0.00 0.00 0.00 36 1016.4
20260505190918 63 99 0.0 0.0 0.00 0.00 0.00 36 1016.3
20260505185920 63 118 0.0 0.0 0.00 0.00 0.00 36 1016.3
20260505185018 63 63 0.0 0.0 0.00 0.00 0.00 36 1016.4
20260505184020 62 58 0.0 0.0 0.00 0.00 0.00 36 1016.4
20260505183019 63 83 0.0 0.0 0.00 0.00 0.00 36 1016.5
20260505182035 62 93 0.0 0.0 0.00 0.00 0.00 34 1016.4
20260505181019 66 45 0.0 0.0 0.00 0.00 0.00 35 1016.3
20260505180020 67 144 0.0 0.0 0.00 0.00 0.00 32 1016.4
20260505175919 67 135 0.0 0.0 0.00 0.00 0.00 32 1016.5
20260505174921 67 107 0.0 0.0 0.00 0.00 0.00 33 1016.4
20260505173936 67 360 0.0 0.0 0.00 0.00 0.00 34 1016.4
20260505172918 68 66 0.0 0.0 0.00 0.00 0.00 38 1016.4
20260505171919 67 81 0.0 0.0 0.00 0.00 0.00 42 1016.4
20260505170920 65 46 0.0 0.0 0.00 0.00 0.00 47 1016.3
20260505165921 64 94 0.0 0.0 0.00 0.00 0.00 47 1016.4
20260505162921 63 90 0.0 0.0 0.00 0.00 0.00 49 1016.3
20260505161920 65 106 0.0 0.0 0.00 0.00 0.00 65 1016.3